Location: Unspecified
(51.6250°N, 0.8230°E)
Time: 15:32:35
(UTC+01:00)

CZ-3 Stage 3 - Visible Passes

Search period start: 22 September 2018 00:00
Search period end: 02 October 2018 00:00
Orbit: 368 x 34824 km, 30.5° (Epoch: 20 September)

Date Brightness Start Highest point End Pass type
(mag) Time Alt. Az. Time Alt. Az. Time Alt. Az.
22 Sep 8.6 14:48:09 10° E 18:28:39 28° E 20:04:50 10° E visible
22 Sep 7.2 22:42:39 10° WSW 00:41:09 20° W 06:40:44 10° W visible
23 Sep 7.0 18:24:40 10° SSW 22:23:48 51° SW 03:30:54 10° SSE visible
24 Sep 7.8 15:05:57 10° SE 21:58:22 61° SSE 23:52:34 10° ESE visible
25 Sep 8.6 14:34:38 10° E 18:16:43 28° E 19:54:05 10° E visible
25 Sep 7.2 22:30:05 10° WSW 00:30:26 21° W 06:29:07 10° W visible
26 Sep 7.1 18:13:42 10° SSW 22:11:15 51° SW 03:20:38 10° SSE visible
27 Sep 7.8 14:53:55 10° SE 21:45:12 61° SSE 23:42:16 10° ESE visible
28 Sep 8.6 14:21:13 10° E 18:04:47 28° E 19:43:18 10° E visible
28 Sep 7.2 22:17:40 10° WSW 00:19:41 21° W 06:17:24 10° W visible
29 Sep 7.1 18:02:45 10° SSW 21:58:42 52° SW 03:10:21 10° SSE visible
30 Sep 7.8 14:41:58 10° SE 21:32:03 61° SSE 23:31:58 10° ESE visible
01 Oct 8.6 14:07:54 10° E 17:52:50 28° E 19:32:29 10° E visible
